Time,TemperatureF,DewpointF,PressureIn,WindDirection,WindDirectionDegrees,WindSpeedMPH,WindSpeedGustMPH,Humidity,HourlyPrecipIn,Conditions,Clouds,dailyrainin,SoftwareType,DateUTC
2013-04-07 00:00:00,58.8,58.8,30.14,East,90,0.0,0.0,100,0.00,,---,0.00,VWS V12.08,2013-04-07 04:00:00,
2013-04-07 00:01:00,41.2,33.2,30.27,South,174,6.5,0.0,73,9.67,,---,0.00,VWS V12.08,2013-04-07 04:01:00,
2013-04-07 00:06:00,41.0,33.1,30.27,South,176,5.2,32.2,73,9.67,,---,0.00,VWS V12.08,2013-04-07 04:06:00,
2013-04-07 00:11:00,40.8,33.0,30.27,South,170,0.0,32.2,74,9.67,,---,0.00,VWS V12.08,2013-04-07 04:11:00,
2013-04-07 00:16:00,40.8,33.1,30.27,South,172,0.0,32.2,74,9.67,,---,0.00,VWS V12.08,2013-04-07 04:16:00,
2013-04-07 00:21:00,40.6,32.9,30.27,SSE,149,4.2,32.2,74,9.67,,---,0.00,VWS V12.08,2013-04-07 04:21:00,
2013-04-07 00:26:00,40.5,32.9,30.26,SSE,156,0.0,32.2,74,9.67,,---,0.00,VWS V12.08,2013-04-07 04:26:00,
2013-04-07 00:31:00,40.5,32.9,30.26,SW,226,6.9,32.2,74,9.67,,---,0.00,VWS V12.08,2013-04-07 04:31:00,
2013-04-07 00:36:00,40.5,32.8,30.26,SSW,195,5.5,32.2,74,9.67,,---,0.00,VWS V12.08,2013-04-07 04:36:00,
2013-04-07 00:41:00,40.7,32.9,30.27,SSE,155,5.7,32.2,74,9.67,,---,0.00,VWS V12.08,2013-04-07 04:41:00,
2013-04-07 00:46:00,39.3,32.1,30.12,WNW,297,4.8,10.8,75,0.00,,---,0.00,VWS V12.08,2013-04-07 04:46:00,
2013-04-07 00:51:00,50.3,50.3,30.08,South,186,0.0,8.8,100,0.03,,---,0.03,VWS V12.08,2013-04-07 04:51:00,
2013-04-07 00:56:00,40.5,32.7,30.26,South,177,7.0,32.2,73,9.67,,---,0.00,VWS V12.08,2013-04-07 04:56:00,
2013-04-07 01:01:00,40.6,32.8,30.26,South,186,3.4,0.0,73,9.67,,---,0.00,VWS V12.08,2013-04-07 05:01:00,
2013-04-07 01:06:00,40.5,32.7,30.27,South,183,5.5,32.2,74,9.67,,---,0.00,VWS V12.08,2013-04-07 05:06:00,
2013-04-07 01:11:00,40.8,33.0,30.27,SE,132,0.0,32.2,74,9.67,,---,0.00,VWS V12.08,2013-04-07 05:11:00,
2013-04-07 01:15:00,40.6,32.9,30.27,South,180,8.1,0.0,74,9.67,,---,0.00,VWS V12.08,2013-04-07 05:15:00,
2013-04-07 01:20:00,40.5,33.0,30.27,SW,214,8.4,0.0,74,9.67,,---,0.00,VWS V12.08,2013-04-07 05:20:00,
2013-04-07 01:25:00,40.6,33.1,30.26,SSW,195,6.7,32.2,74,9.67,,---,0.00,VWS V12.08,2013-04-07 05:25:00,
2013-04-07 01:30:00,40.5,33.1,30.27,South,191,6.2,32.2,75,9.67,,---,0.00,VWS V12.08,2013-04-07 05:30:00,
2013-04-07 01:35:00,40.5,33.2,30.27,SSE,159,8.8,32.2,75,9.67,,---,0.00,VWS V12.08,2013-04-07 05:35:00,
2013-04-07 01:40:00,40.4,33.2,30.27,South,177,3.2,32.2,75,9.67,,---,0.00,VWS V12.08,2013-04-07 05:40:00,
2013-04-07 01:46:00,40.5,33.3,30.27,SSW,202,4.2,32.2,75,9.67,,---,0.00,VWS V12.08,2013-04-07 05:46:00,
2013-04-07 01:51:00,40.5,33.3,30.27,SSE,160,7.0,32.2,75,9.67,,---,0.00,VWS V12.08,2013-04-07 05:51:00,
2013-04-07 01:56:00,40.5,33.4,30.27,South,180,0.0,32.2,76,9.67,,---,0.00,VWS V12.08,2013-04-07 05:56:00,
2013-04-07 02:01:00,46.6,38.0,29.71,West,276,17.2,18.0,72,0.00,,---,0.00,VWS V12.08,2013-04-07 06:01:00,
2013-04-07 02:06:00,37.8,33.1,30.39,NW,304,4.4,8.1,83,0.00,,---,0.00,VWS V12.08,2013-04-07 06:06:00,
2013-04-07 02:11:00,46.6,38.0,29.71,West,276,17.2,18.0,72,0.00,,---,0.00,VWS V12.08,2013-04-07 06:11:00,
2013-04-07 02:16:00,40.1,33.4,30.26,South,187,7.1,32.2,77,9.67,,---,0.00,VWS V12.08,2013-04-07 06:16:00,
2013-04-07 02:21:00,44.5,38.0,29.74,WNW,298,11.1,15.2,78,0.00,,---,0.00,VWS V12.08,2013-04-07 06:21:00,
2013-04-07 02:26:00,40.2,33.6,30.26,South,176,6.7,32.2,77,9.67,,---,0.00,VWS V12.08,2013-04-07 06:26:00,
2013-04-07 02:31:00,46.3,38.0,29.72,WSW,253,14.3,21.3,73,0.00,,---,0.00,VWS V12.08,2013-04-07 06:31:00,
2013-04-07 02:36:00,46.3,38.0,29.72,WSW,253,14.3,21.3,73,0.00,,---,0.00,VWS V12.08,2013-04-07 06:36:00,
2013-04-07 02:41:00,39.9,33.6,30.25,SSE,162,5.3,0.0,78,9.67,,---,0.00,VWS V12.08,2013-04-07 06:41:00,
2013-04-07 02:46:00,33.4,26.7,30.17,North,0,0.0,6.5,76,0.00,,---,0.00,VWS V12.08,2013-04-07 06:46:00,
2013-04-07 02:51:00,33.4,31.8,30.30,NE,38,0.0,0.0,94,0.00,,---,0.00,VWS V12.08,2013-04-07 06:51:00,
2013-04-07 02:56:00,42.5,37.6,29.96,West,260,5.5,13.0,83,0.00,,---,0.00,VWS V12.08,2013-04-07 06:56:00,
2013-04-07 03:02:00,39.8,33.9,30.25,SSW,202,9.4,0.0,79,9.67,,---,0.00,VWS V12.08,2013-04-07 07:02:00,
2013-04-07 03:07:00,44.7,38.6,29.74,West,266,10.4,15.9,79,0.00,,---,0.00,VWS V12.08,2013-04-07 07:07:00,
2013-04-07 03:12:00,39.8,34.0,30.25,SSE,163,11.1,32.2,80,9.67,,---,0.00,VWS V12.08,2013-04-07 07:12:00,
2013-04-07 03:17:00,39.5,33.8,30.25,South,179,6.8,32.2,80,9.67,,---,0.00,VWS V12.08,2013-04-07 07:17:00,
2013-04-07 03:22:00,39.7,34.1,30.25,SE,142,7.3,32.2,80,9.67,,---,0.00,VWS V12.08,2013-04-07 07:22:00,
2013-04-07 03:27:00,40.6,36.2,30.42,North,352,2.8,6.8,84,0.11,,---,0.11,VWS V12.08,2013-04-07 07:27:00,
2013-04-07 03:32:00,44.7,38.6,29.74,West,266,10.4,15.9,79,0.00,,---,0.00,VWS V12.08,2013-04-07 07:32:00,
2013-04-07 03:37:00,39.7,34.4,30.24,South,183,7.0,32.2,81,9.67,,---,0.00,VWS V12.08,2013-04-07 07:37:00,
2013-04-07 03:42:00,39.2,31.7,30.29,WSW,245,4.7,9.6,74,0.00,,---,0.00,VWS V12.08,2013-04-07 07:42:00,
2013-04-07 03:47:00,32.3,30.8,30.23,NNE,13,4.3,6.3,94,0.06,,---,0.06,VWS V12.08,2013-04-07 07:47:00,
2013-04-07 03:52:00,39.7,34.7,30.24,SSE,165,0.0,0.0,82,9.67,,---,0.00,VWS V12.08,2013-04-07 07:52:00,
2013-04-07 03:57:00,58.8,58.8,30.14,East,90,0.0,0.0,100,0.00,,---,0.00,VWS V12.08,2013-04-07 07:57:00,
2013-04-07 04:02:00,38.6,32.4,30.27,North,4,0.0,0.0,78,0.00,,---,0.00,VWS V12.08,2013-04-07 08:02:00,
2013-04-07 04:07:00,37.1,28.4,30.05,West,260,1.3,13.2,70,0.00,,---,0.00,VWS V12.08,2013-04-07 08:07:00,
2013-04-07 04:12:00,39.6,34.9,30.24,SSE,162,8.1,32.2,83,9.67,,---,0.00,VWS V12.08,2013-04-07 08:12:00,
2013-04-07 04:17:00,39.6,35.0,30.24,SSE,150,8.6,32.2,83,9.67,,---,0.00,VWS V12.08,2013-04-07 08:17:00,
2013-04-07 04:22:00,39.6,35.0,30.24,SSW,202,2.5,32.2,84,9.67,,---,0.00,VWS V12.08,2013-04-07 08:22:00,
2013-04-07 04:27:00,42.6,38.5,30.18,SW,231,0.0,23.0,85,0.40,,---,0.00,VWS V12.08,2013-04-07 08:27:00,
2013-04-07 04:32:00,44.5,38.0,29.74,WNW,298,11.1,15.2,78,0.00,,---,0.00,VWS V12.08,2013-04-07 08:32:00,
2013-04-07 04:37:00,39.8,35.3,30.24,SW,217,3.4,32.2,84,9.67,,---,0.00,VWS V12.08,2013-04-07 08:37:00,
2013-04-07 04:42:00,44.7,38.6,29.74,West,266,10.4,15.9,79,0.00,,---,0.00,VWS V12.08,2013-04-07 08:42:00,
2013-04-07 04:47:00,39.8,35.4,30.24,South,173,5.9,32.2,84,9.67,,---,0.00,VWS V12.08,2013-04-07 08:47:00,
2013-04-07 04:52:00,39.8,35.5,30.24,South,191,4.8,0.0,84,9.67,,---,0.00,VWS V12.08,2013-04-07 08:52:00,
2013-04-07 04:57:00,39.6,38.9,30.20,NW,315,0.0,0.0,97,0.00,,---,0.00,VWS V12.08,2013-04-07 08:57:00,
2013-04-07 05:02:00,40.0,35.8,30.24,SSW,197,8.2,32.2,85,9.67,,---,0.00,VWS V12.08,2013-04-07 09:02:00,
2013-04-07 05:07:00,45.2,45.2,29.96,NNW,339,0.0,8.5,100,0.27,,---,0.27,VWS V12.08,2013-04-07 09:07:00,
2013-04-07 05:12:00,40.8,35.9,29.94,WSW,242,3.4,9.1,83,0.00,,---,0.00,VWS V12.08,2013-04-07 09:12:00,
2013-04-07 05:17:00,40.8,40.8,30.39,NW,304,3.3,16.2,100,0.00,,---,0.00,VWS V12.08,2013-04-07 09:17:00,
2013-04-07 05:22:00,41.4,39.5,30.51,NNW,330,5.0,10.5,93,0.00,,---,0.00,VWS V12.08,2013-04-07 09:22:00,
2013-04-07 05:27:00,39.9,35.9,30.24,SSE,160,5.2,0.0,85,9.67,,---,0.00,VWS V12.08,2013-04-07 09:27:00,
2013-04-07 05:32:00,40.1,36.1,30.24,South,176,5.6,32.2,86,9.67,,---,0.00,VWS V12.08,2013-04-07 09:32:00,
2013-04-07 05:37:00,33.4,26.7,30.17,North,0,0.0,6.5,76,0.00,,---,0.00,VWS V12.08,2013-04-07 09:37:00,
2013-04-07 05:42:00,45.2,38.5,29.73,WNW,283,10.8,19.6,77,0.00,,---,0.00,VWS V12.08,2013-04-07 09:42:00,
2013-04-07 05:47:00,50.0,50.0,29.98,South,172,0.0,7.1,100,0.26,,---,0.21,VWS V12.08,2013-04-07 09:47:00,
2013-04-07 05:52:00,36.0,26.8,29.93,West,263,2.1,12.0,69,0.00,,---,0.00,VWS V12.08,2013-04-07 09:52:00,
2013-04-07 05:57:00,33.4,26.7,30.17,North,0,0.0,6.5,76,0.00,,---,0.00,VWS V12.08,2013-04-07 09:57:00,
2013-04-07 06:02:00,36.7,23.7,29.83,West,259,8.8,15.3,59,0.00,,---,0.00,VWS V12.08,2013-04-07 10:02:00,
2013-04-07 06:07:00,40.3,36.4,30.24,South,187,6.1,0.0,86,9.67,,---,0.00,VWS V12.08,2013-04-07 10:07:00,
2013-04-07 06:12:00,42.7,37.6,29.75,NW,307,9.3,16.6,82,0.00,,---,0.00,VWS V12.08,2013-04-07 10:12:00,
2013-04-07 06:17:00,40.3,36.2,30.24,SSW,205,8.2,0.0,85,9.67,,---,0.00,VWS V12.08,2013-04-07 10:17:00,
2013-04-07 06:22:00,58.8,58.8,30.14,East,90,0.0,0.0,100,0.00,,---,0.00,VWS V12.08,2013-04-07 10:22:00,
2013-04-07 06:27:00,40.4,36.0,30.25,SW,217,4.6,0.0,84,9.67,,---,0.00,VWS V12.08,2013-04-07 10:27:00,
2013-04-07 06:32:00,40.5,35.9,30.25,South,187,4.3,32.2,84,9.67,,---,0.00,VWS V12.08,2013-04-07 10:32:00,
2013-04-07 06:37:00,49.4,48.1,29.64,SW,214,1.6,8.3,95,0.00,,---,0.00,VWS V12.08,2013-04-07 10:37:00,
2013-04-07 06:42:00,49.6,48.3,29.65,SE,124,5.3,15.3,95,0.00,,---,0.00,VWS V12.08,2013-04-07 10:42:00,
2013-04-07 06:47:00,40.9,35.6,30.25,South,174,4.9,32.2,81,9.67,,---,0.00,VWS V12.08,2013-04-07 10:47:00,
2013-04-07 06:52:00,40.9,35.5,30.25,SSW,212,7.1,32.2,81,9.67,,---,0.00,VWS V12.08,2013-04-07 10:52:00,
2013-04-07 06:57:00,41.0,35.3,30.25,South,180,10.4,32.2,80,9.67,,---,0.00,VWS V12.08,2013-04-07 10:57:00,
2013-04-07 07:02:00,39.0,36.7,30.42,North,359,8.8,12.1,91,0.00,,---,0.00,VWS V12.08,2013-04-07 11:02:00,
2013-04-07 07:07:00,45.6,43.6,30.39,South,170,0.0,0.0,93,0.00,,---,0.00,VWS V12.08,2013-04-07 11:07:00,
2013-04-07 07:12:00,49.6,48.3,29.65,SE,124,5.3,15.3,95,0.00,,---,0.00,VWS V12.08,2013-04-07 11:12:00,
2013-04-07 07:17:00,45.8,38.0,29.72,NW,326,12.3,22.6,74,0.00,,---,0.00,VWS V12.08,2013-04-07 11:17:00,
2013-04-07 07:22:00,42.6,38.5,30.18,SW,231,0.0,23.0,85,0.40,,---,0.00,VWS V12.08,2013-04-07 11:22:00,
2013-04-07 07:27:00,41.3,34.8,30.25,SSW,211,6.3,0.0,78,9.67,,---,0.00,VWS V12.08,2013-04-07 11:27:00,
2013-04-07 07:32:00,41.2,41.2,30.10,South,173,0.0,11.1,100,0.00,,---,0.00,VWS V12.08,2013-04-07 11:32:00,
2013-04-07 07:37:00,41.6,34.8,30.25,SSE,153,0.0,32.2,77,9.67,,---,0.00,VWS V12.08,2013-04-07 11:37:00,
2013-04-07 07:42:00,41.7,34.8,30.25,SE,131,0.0,32.2,76,9.67,,---,0.00,VWS V12.08,2013-04-07 11:42:00,
2013-04-07 07:47:00,42.0,38.4,30.18,SW,231,0.0,0.0,87,0.00,,---,0.00,VWS V12.08,2013-04-07 11:47:00,
2013-04-07 07:52:00,46.6,38.0,29.71,West,276,17.2,18.0,72,0.00,,---,0.00,VWS V12.08,2013-04-07 11:52:00,
2013-04-07 07:57:00,42.1,34.4,30.25,South,190,4.6,0.0,74,9.67,,---,0.00,VWS V12.08,2013-04-07 11:57:00,
2013-04-07 08:02:00,42.2,34.3,30.25,South,186,0.0,0.0,73,9.67,,---,0.00,VWS V12.08,2013-04-07 12:02:00,
2013-04-07 08:07:00,39.3,39.3,29.46,North,1,10.8,31.8,100,1.39,,---,1.33,VWS V12.08,2013-04-07 12:07:00,
2013-04-07 08:12:00,42.6,34.4,30.25,SSW,194,0.0,0.0,72,9.67,,---,0.00,VWS V12.08,2013-04-07 12:12:00,
2013-04-07 08:17:00,42.9,34.5,30.25,SSW,208,0.0,32.2,72,9.67,,---,0.00,VWS V12.08,2013-04-07 12:17:00,
2013-04-07 08:22:00,36.7,28.2,30.04,North,359,6.6,12.1,71,0.00,,---,0.00,VWS V12.08,2013-04-07 12:22:00,
2013-04-07 08:27:00,42.7,37.6,29.75,NW,307,9.3,16.6,82,0.00,,---,0.00,VWS V12.08,2013-04-07 12:27:00,
2013-04-07 08:32:00,43.5,34.4,30.25,SSW,200,3.0,32.2,70,9.67,,---,0.00,VWS V12.08,2013-04-07 12:32:00,
2013-04-07 08:37:00,43.6,34.2,30.24,SSW,205,5.0,32.2,69,9.67,,---,0.00,VWS V12.08,2013-04-07 12:37:00,
2013-04-07 08:42:00,45.8,38.0,29.72,NW,326,12.3,22.6,74,0.00,,---,0.00,VWS V12.08,2013-04-07 12:42:00,
2013-04-07 08:47:00,43.9,34.0,30.24,SSE,149,5.2,0.0,68,9.67,,---,0.00,VWS V12.08,2013-04-07 12:47:00,
2013-04-07 08:52:00,57.1,57.1,29.55,West,264,0.0,9.9,100,0.30,,---,0.03,VWS V12.08,2013-04-07 12:52:00,
2013-04-07 08:57:00,44.4,33.6,30.23,SSE,163,8.5,0.0,66,9.67,,---,0.00,VWS V12.08,2013-04-07 12:57:00,
2013-04-07 09:02:00,45.5,43.3,30.39,South,170,0.0,10.6,92,0.00,,---,0.00,VWS V12.08,2013-04-07 13:02:00,
2013-04-07 09:07:00,45.1,33.2,30.23,SSE,148,8.9,32.2,63,9.67,,---,0.00,VWS V12.08,2013-04-07 13:07:00,
2013-04-07 09:12:00,45.4,33.1,30.23,SSE,163,11.7,0.0,62,9.67,,---,0.00,VWS V12.08,2013-04-07 13:12:00,
2013-04-07 09:17:00,45.9,33.3,30.23,South,173,8.9,0.0,61,9.67,,---,0.00,VWS V12.08,2013-04-07 13:17:00,
2013-04-07 09:22:00,46.6,33.4,30.23,SSE,150,5.8,0.0,60,9.67,,---,0.00,VWS V12.08,2013-04-07 13:22:00,
2013-04-07 09:27:00,47.1,33.0,30.23,SE,141,13.7,0.0,58,9.67,,---,0.00,VWS V12.08,2013-04-07 13:27:00,
2013-04-07 09:32:00,47.3,32.5,30.23,SE,143,12.2,32.2,56,9.67,,---,0.00,VWS V12.08,2013-04-07 13:32:00,
2013-04-07 09:37:00,47.6,32.9,30.23,SSW,197,12.1,32.2,56,9.67,,---,0.00,VWS V12.08,2013-04-07 13:37:00,
2013-04-07 09:42:00,42.2,33.6,30.20,North,359,0.0,13.9,71,0.00,,---,0.00,VWS V12.08,2013-04-07 13:42:00,
2013-04-07 09:47:00,42.5,37.6,29.96,West,260,5.5,13.0,83,0.00,,---,0.00,VWS V12.08,2013-04-07 13:47:00,
2013-04-07 09:52:00,48.9,33.5,30.23,SSE,155,3.4,32.2,55,9.67,,---,0.00,VWS V12.08,2013-04-07 13:52:00,
2013-04-07 09:57:00,41.2,41.2,30.10,South,173,0.0,11.1,100,0.00,,---,0.00,VWS V12.08,2013-04-07 13:57:00,
2013-04-07 10:02:00,50.0,33.4,30.22,South,173,7.8,32.2,53,9.67,,---,0.00,VWS V12.08,2013-04-07 14:02:00,
2013-04-07 10:07:00,44.5,40.9,29.61,West,280,8.8,26.0,87,0.94,,---,0.50,VWS V12.08,2013-04-07 14:07:00,
2013-04-07 10:12:00,51.2,33.4,30.22,South,183,13.4,0.0,50,9.67,,---,0.00,VWS V12.08,2013-04-07 14:12:00,
2013-04-07 10:17:00,51.7,33.9,30.22,SE,124,9.4,0.0,50,9.67,,---,0.00,VWS V12.08,2013-04-07 14:17:00,
2013-04-07 10:22:00,37.5,31.1,30.43,NW,316,5.0,24.0,77,0.11,,---,0.00,VWS V12.08,2013-04-07 14:22:00,
2013-04-07 10:27:00,52.2,34.0,30.21,SSW,194,11.1,32.2,50,9.67,,---,0.00,VWS V12.08,2013-04-07 14:27:00,
2013-04-07 10:32:00,33.3,33.3,29.77,NNW,328,0.0,24.4,100,0.22,,---,0.22,VWS V12.08,2013-04-07 14:32:00,
2013-04-07 10:37:00,52.8,52.8,29.92,SSE,165,5.8,8.0,100,0.13,,---,0.13,VWS V12.08,2013-04-07 14:37:00,
2013-04-07 10:43:00,44.5,38.0,29.74,WNW,301,10.5,17.8,78,0.00,,---,0.00,VWS V12.08,2013-04-07 14:43:00,
2013-04-07 10:48:00,53.2,34.3,30.21,South,176,11.2,32.2,48,9.67,,---,0.00,VWS V12.08,2013-04-07 14:48:00,
2013-04-07 10:53:00,36.7,23.7,29.83,West,259,8.8,15.3,59,0.00,,---,0.00,VWS V12.08,2013-04-07 14:53:00,
2013-04-07 10:58:00,33.7,32.0,30.29,NE,38,0.0,0.0,93,0.00,,---,0.00,VWS V12.08,2013-04-07 14:58:00,
2013-04-07 11:03:00,53.9,34.6,30.20,SSE,158,7.7,32.2,48,9.67,,---,0.00,VWS V12.08,2013-04-07 15:03:00,
2013-04-07 11:08:00,36.7,23.7,29.83,West,259,8.8,15.3,59,0.00,,---,0.00,VWS V12.08,2013-04-07 15:08:00,
2013-04-07 11:13:00,54.4,34.2,30.20,SSE,148,5.7,32.2,46,9.67,,---,0.00,VWS V12.08,2013-04-07 15:13:00,
2013-04-07 11:18:00,54.4,33.5,30.20,South,176,6.4,32.2,45,9.67,,---,0.00,VWS V12.08,2013-04-07 15:18:00,
2013-04-07 11:23:00,37.7,32.5,30.21,SSW,208,0.0,0.0,81,0.00,,---,0.00,VWS V12.08,2013-04-07 15:23:00,
2013-04-07 11:28:00,54.3,32.4,30.19,SSW,208,9.8,0.0,43,9.67,,---,0.00,VWS V12.08,2013-04-07 15:28:00,
2013-04-07 11:33:00,54.6,32.9,30.19,SSW,198,7.2,32.2,44,9.67,,---,0.00,VWS V12.08,2013-04-07 15:33:00,
2013-04-07 11:38:00,40.8,40.8,30.39,NW,304,3.3,16.2,100,0.00,,---,0.00,VWS V12.08,2013-04-07 15:38:00,
2013-04-07 11:43:00,55.4,33.5,30.18,SW,219,7.1,32.2,43,9.67,,---,0.00,VWS V12.08,2013-04-07 15:43:00,
2013-04-07 11:48:00,45.2,45.2,29.57,NNE,13,6.3,9.5,100,0.40,,---,0.39,VWS V12.08,2013-04-07 15:48:00,
2013-04-07 11:53:00,47.3,47.3,30.23,NW,322,0.0,5.5,100,0.00,,---,0.00,VWS V12.08,2013-04-07 15:53:00,
2013-04-07 11:58:00,55.4,37.2,30.17,ESE,103,11.1,0.0,50,9.67,,---,0.00,VWS V12.08,2013-04-07 15:58:00,
2013-04-07 12:03:00,55.2,37.6,30.16,NE,42,6.8,32.2,51,9.67,,---,0.00,VWS V12.08,2013-04-07 16:03:00,
2013-04-07 12:08:00,54.8,37.4,30.15,East,94,9.8,32.2,52,9.67,,---,0.00,VWS V12.08,2013-04-07 16:08:00,
2013-04-07 12:13:00,38.9,31.6,30.29,WSW,252,5.8,18.4,75,0.04,,---,0.00,VWS V12.08,2013-04-07 16:13:00,
2013-04-07 12:18:00,36.2,28.8,30.23,WNW,295,0.0,22.9,74,0.00,,---,0.00,VWS V12.08,2013-04-07 16:18:00,
2013-04-07 12:23:00,35.5,27.5,30.22,North,359,5.6,17.0,72,0.01,,---,0.01,VWS V12.08,2013-04-07 16:23:00,
2013-04-07 12:28:00,54.7,38.8,30.14,ESE,117,12.2,0.0,55,9.67,,---,0.00,VWS V12.08,2013-04-07 16:28:00,
2013-04-07 12:33:00,36.4,29.6,30.22,WNW,295,0.0,0.0,76,0.00,,---,0.00,VWS V12.08,2013-04-07 16:33:00,
2013-04-07 12:38:00,54.9,39.5,30.13,East,94,18.4,32.2,56,9.67,,---,0.00,VWS V12.08,2013-04-07 16:38:00,
2013-04-07 12:43:00,44.5,40.9,29.61,West,280,8.8,26.0,87,0.94,,---,0.50,VWS V12.08,2013-04-07 16:43:00,
2013-04-07 12:48:00,39.9,35.8,30.61,NW,322,0.0,6.6,85,0.00,,---,0.00,VWS V12.08,2013-04-07 16:48:00,
2013-04-07 12:53:00,55.0,40.3,30.12,SSE,152,11.1,0.0,58,9.67,,---,0.00,VWS V12.08,2013-04-07 16:53:00,
2013-04-07 12:58:00,55.2,40.3,30.12,ESE,103,21.9,32.2,57,9.67,,---,0.00,VWS V12.08,2013-04-07 16:58:00,
2013-04-07 13:03:00,40.7,36.0,30.19,NNW,329,5.5,7.7,83,0.05,,---,0.05,VWS V12.08,2013-04-07 17:03:00,
2013-04-07 13:08:00,46.6,38.0,29.71,West,276,17.2,18.0,72,0.00,,---,0.00,VWS V12.08,2013-04-07 17:08:00,
2013-04-07 13:13:00,55.2,41.4,30.11,ESE,115,8.7,0.0,60,9.67,,---,0.00,VWS V12.08,2013-04-07 17:13:00,
2013-04-07 13:18:00,55.4,41.9,30.11,ESE,112,11.9,0.0,60,9.67,,---,0.00,VWS V12.08,2013-04-07 17:18:00,
2013-04-07 13:23:00,55.4,41.8,30.10,East,101,19.0,32.2,60,9.67,,---,0.00,VWS V12.08,2013-04-07 17:23:00,
2013-04-07 13:28:00,55.3,42.1,30.10,East,97,10.0,0.0,61,9.67,,---,0.00,VWS V12.08,2013-04-07 17:28:00,
2013-04-07 13:33:00,55.5,42.6,30.10,East,91,14.4,32.2,62,9.67,,---,0.00,VWS V12.08,2013-04-07 17:33:00,
2013-04-07 13:38:00,55.3,42.4,30.10,ESE,118,10.1,32.2,62,9.67,,---,0.00,VWS V12.08,2013-04-07 17:38:00,
2013-04-07 13:43:00,41.4,39.5,30.51,NNW,330,5.0,10.5,93,0.00,,---,0.00,VWS V12.08,2013-04-07 17:43:00,
2013-04-07 13:48:00,32.3,30.8,30.23,NNE,13,4.3,6.3,94,0.06,,---,0.06,VWS V12.08,2013-04-07 17:48:00,
2013-04-07 13:53:00,55.6,43.5,30.10,ENE,75,14.8,32.2,64,9.67,,---,0.00,VWS V12.08,2013-04-07 17:53:00,
2013-04-07 13:58:00,55.3,43.7,30.09,ESE,105,16.8,0.0,65,9.67,,---,0.00,VWS V12.08,2013-04-07 17:58:00,
2013-04-07 14:03:00,52.8,52.8,29.92,SSE,165,5.8,8.0,100,0.13,,---,0.13,VWS V12.08,2013-04-07 18:03:00,
2013-04-07 14:08:00,55.3,44.3,30.08,ESE,110,18.8,32.2,66,9.67,,---,0.00,VWS V12.08,2013-04-07 18:08:00,
2013-04-07 14:13:00,55.2,44.1,30.08,SE,136,9.3,0.0,66,9.67,,---,0.00,VWS V12.08,2013-04-07 18:13:00,
2013-04-07 14:18:00,55.0,44.4,30.08,East,100,18.0,0.0,67,9.67,,---,0.00,VWS V12.08,2013-04-07 18:18:00,
2013-04-07 14:23:00,54.8,44.2,30.08,East,97,19.8,32.2,67,9.67,,---,0.00,VWS V12.08,2013-04-07 18:23:00,
2013-04-07 14:28:00,33.4,31.8,30.30,NE,38,0.0,0.0,94,0.00,,---,0.00,VWS V12.08,2013-04-07 18:28:00,
2013-04-07 14:33:00,54.5,44.8,30.07,East,89,15.3,0.0,70,9.67,,---,0.00,VWS V12.08,2013-04-07 18:33:00,
2013-04-07 14:38:00,42.3,42.3,29.99,NNW,346,0.0,0.0,100,0.27,,---,0.27,VWS V12.08,2013-04-07 18:38:00,
2013-04-07 14:43:00,32.4,32.1,29.58,WNW,298,9.2,24.0,99,0.00,,---,0.00,VWS V12.08,2013-04-07 18:43:00,
2013-04-07 14:48:00,54.5,44.8,30.06,ESE,121,8.6,0.0,70,9.67,,---,0.00,VWS V12.08,2013-04-07 18:48:00,
2013-04-07 14:53:00,54.9,45.0,30.06,SSE,153,7.1,32.2,69,9.67,,---,0.00,VWS V12.08,2013-04-07 18:53:00,
2013-04-07 14:58:00,55.2,45.2,30.06,ESE,108,10.9,32.2,69,9.67,,---,0.00,VWS V12.08,2013-04-07 18:58:00,
2013-04-07 15:03:00,45.2,45.2,29.57,NNE,13,6.3,9.5,100,0.40,,---,0.39,VWS V12.08,2013-04-07 19:03:00,
2013-04-07 15:08:00,49.9,49.9,30.08,SSW,207,6.3,11.3,100,0.03,,---,0.03,VWS V12.08,2013-04-07 19:08:00,
2013-04-07 15:13:00,54.5,45.1,30.05,ESE,111,12.6,32.2,70,9.67,,---,0.00,VWS V12.08,2013-04-07 19:13:00,
2013-04-07 15:18:00,33.7,32.0,30.29,NE,38,0.0,0.0,93,0.00,,---,0.00,VWS V12.08,2013-04-07 19:18:00,
2013-04-07 15:23:00,45.0,45.0,29.97,North,359,6.3,15.2,100,0.53,,---,0.27,VWS V12.08,2013-04-07 19:23:00,
2013-04-07 15:28:00,49.4,48.1,29.64,SW,214,1.6,8.3,95,0.00,,---,0.00,VWS V12.08,2013-04-07 19:28:00,
2013-04-07 15:33:00,33.4,31.8,30.30,NE,38,0.0,0.0,94,0.00,,---,0.00,VWS V12.08,2013-04-07 19:33:00,
2013-04-07 15:38:00,39.1,36.7,30.42,NNE,21,5.8,15.4,91,0.00,,---,0.00,VWS V12.08,2013-04-07 19:38:00,
2013-04-07 15:43:00,44.4,40.6,29.62,WSW,239,13.3,18.0,86,0.54,,---,0.50,VWS V12.08,2013-04-07 19:43:00,
2013-04-07 15:48:00,54.1,45.8,30.02,East,89,11.2,32.2,73,9.67,,---,0.00,VWS V12.08,2013-04-07 19:48:00,
2013-04-07 15:53:00,54.0,45.8,30.01,ESE,110,14.1,32.2,74,9.67,,---,0.00,VWS V12.08,2013-04-07 19:53:00,
2013-04-07 15:58:00,35.5,27.5,30.22,North,359,5.6,17.0,72,0.01,,---,0.01,VWS V12.08,2013-04-07 19:58:00,
2013-04-07 16:03:00,29.1,27.7,30.03,WNW,291,0.0,30.0,94,0.88,,---,0.00,VWS V12.08,2013-04-07 20:03:00,
2013-04-07 16:08:00,43.5,38.3,29.75,West,271,5.9,18.0,82,0.00,,---,0.00,VWS V12.08,2013-04-07 20:08:00,
2013-04-07 16:13:00,54.3,45.9,30.00,East,98,12.4,32.2,73,9.67,,---,0.00,VWS V12.08,2013-04-07 20:13:00,
2013-04-07 16:18:00,54.8,46.2,30.00,ESE,121,7.4,0.0,73,9.67,,---,0.00,VWS V12.08,2013-04-07 20:18:00,
2013-04-07 16:23:00,54.5,46.0,29.99,SE,125,17.3,0.0,73,9.67,,---,0.00,VWS V12.08,2013-04-07 20:23:00,
2013-04-07 16:28:00,54.6,46.2,29.99,ESE,108,19.1,32.2,73,9.67,,---,0.00,VWS V12.08,2013-04-07 20:28:00,
2013-04-07 16:33:00,43.6,43.6,29.87,ENE,66,4.3,11.7,100,0.65,,---,0.65,VWS V12.08,2013-04-07 20:33:00,
2013-04-07 16:38:00,40.9,40.9,30.10,South,173,0.0,0.0,100,0.00,,---,0.00,VWS V12.08,2013-04-07 20:38:00,
2013-04-07 16:43:00,54.1,46.2,30.00,SE,145,9.3,32.2,74,9.67,,---,0.00,VWS V12.08,2013-04-07 20:43:00,
2013-04-07 16:48:00,37.4,31.2,30.43,WNW,302,0.0,7.8,78,0.00,,---,0.00,VWS V12.08,2013-04-07 20:48:00,
2013-04-07 16:53:00,54.4,46.6,30.00,SE,135,9.6,32.2,75,9.67,,---,0.00,VWS V12.08,2013-04-07 20:53:00,
2013-04-07 16:58:00,54.2,46.3,30.00,SE,127,9.8,32.2,75,9.67,,---,0.00,VWS V12.08,2013-04-07 20:58:00,
2013-04-07 17:03:00,54.7,46.7,30.00,SE,141,9.2,32.2,74,9.67,,---,0.00,VWS V12.08,2013-04-07 21:03:00,
2013-04-07 17:08:00,54.5,46.5,30.00,South,187,8.0,0.0,74,9.67,,---,0.00,VWS V12.08,2013-04-07 21:08:00,
2013-04-07 17:13:00,54.8,46.7,29.99,ESE,117,18.3,32.2,74,9.67,,---,0.00,VWS V12.08,2013-04-07 21:13:00,
2013-04-07 17:18:00,42.7,37.6,29.75,NW,307,9.3,16.6,82,0.00,,---,0.00,VWS V12.08,2013-04-07 21:18:00,
2013-04-07 17:23:00,54.6,46.8,29.98,SE,127,14.3,32.2,75,9.67,,---,0.00,VWS V12.08,2013-04-07 21:23:00,
2013-04-07 17:28:00,49.9,49.9,30.08,SSW,207,6.3,11.3,100,0.03,,---,0.03,VWS V12.08,2013-04-07 21:28:00,
2013-04-07 17:33:00,54.2,47.0,29.97,ESE,111,14.7,32.2,76,9.67,,---,0.00,VWS V12.08,2013-04-07 21:33:00,
2013-04-07 17:38:00,35.5,27.5,30.22,North,359,5.6,17.0,72,0.01,,---,0.01,VWS V12.08,2013-04-07 21:38:00,
2013-04-07 17:43:00,53.3,46.9,29.97,SE,124,13.2,32.2,79,9.67,,---,0.00,VWS V12.08,2013-04-07 21:43:00,
2013-04-07 17:48:00,53.1,47.0,29.97,East,98,14.7,0.0,80,9.67,,---,0.00,VWS V12.08,2013-04-07 21:48:00,
2013-04-07 17:53:00,35.5,29.6,30.26,West,260,6.0,12.4,79,0.04,,---,0.03,VWS V12.08,2013-04-07 21:53:00,
2013-04-07 17:58:00,37.6,35.2,29.32,South,180,0.0,45.1,91,1.13,,---,1.03,VWS V12.08,2013-04-07 21:58:00,
2013-04-07 18:03:00,47.3,47.3,30.23,NW,322,0.0,5.5,100,0.00,,---,0.00,VWS V12.08,2013-04-07 22:03:00,
2013-04-07 18:08:00,37.4,31.2,30.43,WNW,302,0.0,7.8,78,0.00,,---,0.00,VWS V12.08,2013-04-07 22:08:00,
2013-04-07 18:13:00,52.8,47.4,29.99,ESE,117,5.3,0.0,82,9.67,,---,0.00,VWS V12.08,2013-04-07 22:13:00,
2013-04-07 18:18:00,52.6,47.3,29.98,SSE,149,6.5,0.0,82,9.67,,---,0.00,VWS V12.08,2013-04-07 22:18:00,
2013-04-07 18:23:00,37.2,32.8,30.42,NNE,18,3.2,9.1,84,0.00,,---,0.00,VWS V12.08,2013-04-07 22:23:00,
2013-04-07 18:28:00,52.3,47.4,29.98,SSE,149,7.7,32.2,83,9.67,,---,0.00,VWS V12.08,2013-04-07 22:28:00,
2013-04-07 18:33:00,50.0,50.0,29.98,South,172,0.0,7.1,100,0.26,,---,0.21,VWS V12.08,2013-04-07 22:33:00,
2013-04-07 18:38:00,52.3,47.5,29.98,SE,131,8.0,0.0,84,9.67,,---,0.00,VWS V12.08,2013-04-07 22:38:00,
2013-04-07 18:43:00,32.5,32.5,29.58,WNW,300,9.3,17.1,100,0.00,,---,0.00,VWS V12.08,2013-04-07 22:43:00,
2013-04-07 18:48:00,52.5,47.7,29.98,SSE,163,7.6,32.2,84,9.67,,---,0.00,VWS V12.08,2013-04-07 22:48:00,
2013-04-07 18:53:00,52.9,48.0,29.99,ENE,70,4.5,32.2,83,9.67,,---,0.00,VWS V12.08,2013-04-07 22:53:00,
2013-04-07 18:58:00,41.2,41.2,30.10,South,173,0.0,11.1,100,0.00,,---,0.00,VWS V12.08,2013-04-07 22:58:00,
2013-04-07 19:03:00,53.3,48.0,29.99,SSE,148,5.2,0.0,82,9.67,,---,0.00,VWS V12.08,2013-04-07 23:03:00,
2013-04-07 19:08:00,45.6,43.6,30.39,South,170,0.0,0.0,93,0.00,,---,0.00,VWS V12.08,2013-04-07 23:08:00,
2013-04-07 19:13:00,34.2,30.1,30.25,South,186,0.0,17.3,85,0.01,,---,0.00,VWS V12.08,2013-04-07 23:13:00,
2013-04-07 19:18:00,54.2,47.9,29.99,SSE,163,7.0,32.2,79,9.67,,---,0.00,VWS V12.08,2013-04-07 23:18:00,
2013-04-07 19:23:00,38.5,29.1,29.82,WSW,245,7.9,17.2,69,0.00,,---,0.00,VWS V12.08,2013-04-07 23:23:00,
2013-04-07 19:28:00,34.2,30.1,30.25,South,186,0.0,17.3,85,0.01,,---,0.00,VWS V12.08,2013-04-07 23:28:00,
2013-04-07 19:33:00,38.5,29.1,29.82,WSW,245,7.9,17.2,69,0.00,,---,0.00,VWS V12.08,2013-04-07 23:33:00,
2013-04-07 19:38:00,55.0,47.8,29.99,South,190,4.5,0.0,77,9.67,,---,0.00,VWS V12.08,2013-04-07 23:38:00,
2013-04-07 19:43:00,55.4,47.8,30.00,South,172,7.3,32.2,76,9.67,,---,0.00,VWS V12.08,2013-04-07 23:43:00,
2013-04-07 19:48:00,55.6,47.6,30.00,South,180,9.9,0.0,74,9.67,,---,0.00,VWS V12.08,2013-04-07 23:48:00,
2013-04-07 19:53:00,55.9,47.5,30.00,SSW,204,5.5,0.0,73,9.67,,---,0.00,VWS V12.08,2013-04-07 23:53:00,
2013-04-07 19:58:00,42.2,33.6,30.20,North,359,0.0,13.9,71,0.00,,---,0.00,VWS V12.08,2013-04-07 23:58:00,
2013-04-07 20:03:00,56.3,47.5,30.00,SSW,194,0.0,32.2,72,9.67,,---,0.00,VWS V12.08,2013-04-08 00:03:00,
2013-04-07 20:08:00,56.2,47.4,30.00,SSW,200,3.2,32.2,72,9.67,,---,0.00,VWS V12.08,2013-04-08 00:08:00,
2013-04-07 20:13:00,56.5,47.6,30.00,South,172,6.5,0.0,72,9.67,,---,0.00,VWS V12.08,2013-04-08 00:13:00,
2013-04-07 20:18:00,56.2,47.3,30.00,SSE,148,4.7,32.2,72,9.67,,---,0.00,VWS V12.08,2013-04-08 00:18:00,
2013-04-07 20:23:00,56.4,47.6,30.01,SSW,207,5.4,32.2,72,9.67,,---,0.00,VWS V12.08,2013-04-08 00:23:00,
2013-04-07 20:28:00,34.2,30.1,30.25,South,186,0.0,17.3,85,0.01,,---,0.00,VWS V12.08,2013-04-08 00:28:00,
2013-04-07 20:33:00,39.9,35.8,30.61,NW,322,0.0,6.6,85,0.00,,---,0.00,VWS V12.08,2013-04-08 00:33:00,
2013-04-07 20:38:00,56.3,47.5,30.01,South,176,6.7,32.2,72,9.67,,---,0.00,VWS V12.08,2013-04-08 00:38:00,
2013-04-07 20:43:00,39.6,39.6,29.46,North,8,15.7,30.4,100,1.42,,---,1.42,VWS V12.08,2013-04-08 00:43:00,
2013-04-07 20:48:00,56.2,47.7,30.01,SSE,165,8.8,32.2,73,9.67,,---,0.00,VWS V12.08,2013-04-08 00:48:00,
2013-04-07 20:53:00,41.2,36.4,30.18,NNW,330,0.0,21.1,83,0.08,,---,0.05,VWS V12.08,2013-04-08 00:53:00,
2013-04-07 20:58:00,45.2,45.2,29.57,NNE,13,6.3,9.5,100,0.40,,---,0.39,VWS V12.08,2013-04-08 00:58:00,
2013-04-07 21:03:00,43.2,39.8,30.11,North,359,5.2,6.1,88,0.00,,---,0.00,VWS V12.08,2013-04-08 01:03:00,
2013-04-07 21:07:00,55.3,47.5,30.00,South,188,0.0,0.0,75,9.67,,---,0.00,VWS V12.08,2013-04-08 01:07:00,
2013-04-07 21:12:00,55.2,47.5,30.00,South,169,6.6,0.0,75,9.67,,---,0.00,VWS V12.08,2013-04-08 01:12:00,
2013-04-07 21:17:00,55.1,47.6,30.00,South,184,8.9,0.0,76,9.67,,---,0.00,VWS V12.08,2013-04-08 01:17:00,
2013-04-07 21:22:00,45.0,45.0,29.97,North,359,6.3,15.2,100,0.53,,---,0.27,VWS V12.08,2013-04-08 01:22:00,
2013-04-07 21:27:00,54.0,54.0,29.58,WNW,285,19.9,23.6,100,0.03,,---,0.03,VWS V12.08,2013-04-08 01:27:00,
2013-04-07 21:32:00,54.8,47.6,30.00,SSE,149,6.3,32.2,77,9.67,,---,0.00,VWS V12.08,2013-04-08 01:32:00,
2013-04-07 21:37:00,54.7,47.7,30.01,SSE,152,6.9,0.0,77,9.67,,---,0.00,VWS V12.08,2013-04-08 01:37:00,
2013-04-07 21:42:00,54.6,47.8,30.01,South,183,7.8,32.2,78,9.67,,---,0.00,VWS V12.08,2013-04-08 01:42:00,
2013-04-07 21:47:00,43.2,39.8,30.11,North,359,5.2,6.1,88,0.00,,---,0.00,VWS V12.08,2013-04-08 01:47:00,
2013-04-07 21:52:00,39.5,38.9,30.21,NW,315,0.0,15.0,98,0.00,,---,0.00,VWS V12.08,2013-04-08 01:52:00,
2013-04-07 21:57:00,54.4,47.9,30.01,SSE,162,5.7,32.2,79,9.67,,---,0.00,VWS V12.08,2013-04-08 01:57:00,
2013-04-07 22:02:00,45.6,40.4,30.17,ENE,68,0.0,9.5,82,0.00,,---,0.00,VWS V12.08,2013-04-08 02:02:00,
2013-04-07 22:07:00,33.4,31.8,30.30,NE,38,0.0,0.0,94,0.00,,---,0.00,VWS V12.08,2013-04-08 02:07:00,
2013-04-07 22:12:00,54.5,48.2,30.01,South,187,8.3,32.2,79,9.67,,---,0.00,VWS V12.08,2013-04-08 02:12:00,
2013-04-07 22:17:00,44.5,38.0,29.74,WNW,301,10.5,17.8,78,0.00,,---,0.00,VWS V12.08,2013-04-08 02:17:00,
2013-04-07 22:22:00,54.3,48.0,30.00,South,183,7.4,0.0,79,9.67,,---,0.00,VWS V12.08,2013-04-08 02:22:00,
2013-04-07 22:27:00,54.4,48.2,30.00,SSW,195,11.4,0.0,79,9.67,,---,0.00,VWS V12.08,2013-04-08 02:27:00,
2013-04-07 22:32:00,43.1,40.1,30.12,NNW,342,0.0,10.8,89,0.00,,---,0.00,VWS V12.08,2013-04-08 02:32:00,
2013-04-07 22:38:00,54.7,48.5,30.00,South,179,7.3,32.2,80,9.67,,---,0.00,VWS V12.08,2013-04-08 02:38:00,
2013-04-07 22:43:00,54.3,48.1,30.00,South,176,7.0,32.2,80,9.67,,---,0.00,VWS V12.08,2013-04-08 02:43:00,
2013-04-07 22:48:00,54.4,48.3,30.00,South,180,4.3,32.2,80,9.67,,---,0.00,VWS V12.08,2013-04-08 02:48:00,
2013-04-07 22:53:00,54.3,48.2,30.00,SSW,201,8.6,32.2,80,9.67,,---,0.00,VWS V12.08,2013-04-08 02:53:00,
2013-04-07 22:58:00,54.2,48.1,30.00,SW,229,6.6,32.2,80,9.67,,---,0.00,VWS V12.08,2013-04-08 02:58:00,
2013-04-07 23:03:00,54.4,48.3,30.00,SSW,198,10.9,32.2,80,9.67,,---,0.00,VWS V12.08,2013-04-08 03:03:00,
2013-04-07 23:08:00,54.1,48.0,29.99,South,187,11.2,32.2,80,9.67,,---,0.00,VWS V12.08,2013-04-08 03:08:00,
2013-04-07 23:14:00,54.4,48.3,29.99,South,180,5.7,32.2,80,9.67,,---,0.00,VWS V12.08,2013-04-08 03:14:00,
2013-04-07 23:19:00,54.3,48.2,29.99,SSW,195,8.7,32.2,80,9.67,,---,0.00,VWS V12.08,2013-04-08 03:19:00,
2013-04-07 23:24:00,54.0,47.9,29.99,SSW,200,10.1,32.2,80,9.67,,---,0.00,VWS V12.08,2013-04-08 03:24:00,
2013-04-07 23:29:00,54.0,48.0,29.99,SSW,204,6.3,32.2,80,9.67,,---,0.00,VWS V12.08,2013-04-08 03:29:00,
2013-04-07 23:34:00,54.0,48.0,29.99,South,181,11.3,32.2,80,9.67,,---,0.00,VWS V12.08,2013-04-08 03:34:00,
2013-04-07 23:39:00,54.1,48.1,29.98,South,191,9.7,32.2,80,9.67,,---,0.00,VWS V12.08,2013-04-08 03:39:00,
2013-04-07 23:44:00,53.8,47.9,29.98,South,183,8.6,32.2,80,9.67,,---,0.00,VWS V12.08,2013-04-08 03:44:00,
2013-04-07 23:49:00,53.7,47.8,29.98,South,179,7.1,32.2,80,9.67,,---,0.00,VWS V12.08,2013-04-08 03:49:00,
2013-04-07 23:55:00,53.9,48.1,29.98,South,181,7.8,32.2,81,9.67,,---,0.00,VWS V12.08,2013-04-08 03:55:00,